[[{"header":{"parameterUnit":"m.s-1","parameterCategory":2,"la1":30.2992,"la2":30.254,"lo1":-89.0895,"lo2":-89.0443,"dy":0.0025,"dx":0.0025,"nx":19,"ny":19,"refTime":"2026-04-28T21:00:00:Z","depth":"0","parameterNumber":2,"parameterNumberName":"U-component_of_CURRENTS"},"data":[0,0,0,0.177,0.1773,0.1925,0.1925,0.2036,0.2037,0,0,0,0,0,0,0,0,0,0,0,0.1712,0.1713,0.1769,0.1773,0.1925,0.1925,0.2036,0.2037,0,0,0,0,0,0,0,0,0,0,0,0.1712,0.1713,0.1714,0.1774,0.1924,0.1925,0.2036,0.1941,0,0,0,0,0,0,0,0,0,0,0.1804,0.1759,0.1713,0.1714,0.1775,0.1924,0.1925,0.1938,0.1947,0.1944,0,0.1972,0,0.2009,0.2042,0.2043,0,0,0,0.1771,0.1751,0.1799,0.1714,0.1776,0.1924,0.1856,0.1944,0.1954,0.1956,0.1974,0.1979,0.2011,0.2043,0.2043,0.2186,0.2187,0,0,0.1762,0.1732,0.1792,0.1806,0.182,0.1851,0.186,0.1951,0.1957,0.1975,0.1983,0.2013,0.2044,0.2044,0.2186,0.2187,0,0,0,0.174,0.1726,0.1773,0.18,0.1836,0.1855,0.1866,0.1954,0.1972,0.1984,0.2014,0.2044,0.2045,0.2185,0.2186,0.224,0,0,0,0.1735,0.1713,0.1769,0.1751,0.1835,0.1907,0.1866,0.1965,0.1977,0.2014,0.2044,0.2046,0.2184,0.2185,0.2236,0.2276,0,0,0,0.1704,0.171,0.1731,0.1749,0.1818,0.1907,0.1931,0.1969,0.1995,0.2043,0.2046,0.2183,0.2185,0.2233,0.2271,0.235,0,0,0,0.1663,0.171,0.173,0.1803,0.1817,0.1952,0.1931,0.2024,0.2072,0.2045,0.2184,0.2186,0.2232,0.2267,0.2345,0.2345,0.2365,0,0,0.1701,0.1713,0.1762,0.1785,0.1908,0.1931,0.2054,0.2096,0.21,0.2145,0.2149,0.2237,0.227,0.2349,0.2472,0.2487,0,0,0,0.1762,0.1793,0.1839,0.1913,0.2004,0.2083,0.2136,0.2166,0.2226,0.214,0.2267,0.2287,0.2334,0.2326,0.234,0.2325,0.2196,0.2196,0.2196,0.1747,0.1819,0.1906,0.2002,0.2084,0.2195,0.2271,0.2317,0.2296,0.2337,0.2352,0.248,0.2472,0.2482,0.2467,0.2368,0.2368,0.2368,0.2368,0.1804,0.1855,0.1945,0.205,0.2142,0.224,0.2377,0.2397,0.251,0.2449,0.2491,0.241,0.2499,0.2479,0.2372,0.2372,0.2371,0.2371,0.237,0.1784,0.1818,0.1889,0.2021,0.2133,0.2252,0.2378,0.2477,0.2564,0.2627,0.2618,0.2617,0.2581,0.2638,0.2638,0.2639,0.2639,0.264,0.264,0.172,0.18,0.1861,0.1993,0.2057,0.2182,0.2377,0.2483,0.2642,0.2705,0.2705,0.2637,0.2563,0.2532,0.2648,0.2647,0.2646,0.2645,0.2645,0.1699,0.1727,0.1813,0.1874,0.202,0.2101,0.2292,0.253,0.2669,0.2763,0.2791,0.2757,0.2748,0.2736,0.2711,0.2867,0.2867,0.2867,0.2867,0.1653,0.1686,0.1774,0.1848,0.1946,0.2067,0.2207,0.244,0.2724,0.2836,0.2876,0.2794,0.2786,0.2774,0.2761,0.2735,0.2893,0.2893,0.2893,0.1633,0.1674,0.1708,0.1806,0.191,0.2017,0.2118,0.2293,0.2687,0.2893,0.2864,0.2863,0.2737,0.2724,0.2693,0.2676,0.2627,0,0]},{"header":{"parameterUnit":"m.s-1","parameterCategory":2,"la1":30.2992,"la2":30.254,"lo1":-89.0895,"lo2":-89.0443,"dy":0.0025,"dx":0.0025,"nx":19,"ny":19,"refTime":"2026-04-28T21:00:00:Z","depth":"0","parameterNumber":3,"parameterNumberName":"V-component_of_CURRENTS"},"data":[0,0,0,-0.0076,-0.0078,-0.019,-0.019,-0.0303,-0.0304,0,0,0,0,0,0,0,0,0,0,0,-0.0031,-0.0031,-0.0075,-0.0078,-0.019,-0.019,-0.0303,-0.0304,0,0,0,0,0,0,0,0,0,0,0,-0.003,-0.0031,-0.0032,-0.0079,-0.019,-0.0191,-0.0303,-0.0225,0,0,0,0,0,0,0,0,0,0,-0.012,-0.0075,-0.0031,-0.0032,-0.0079,-0.019,-0.0191,-0.0222,-0.023,-0.0245,0,-0.0263,0,-0.029,-0.0311,-0.0312,0,0,0,-0.0076,-0.0068,-0.0109,-0.0032,-0.008,-0.019,-0.0139,-0.0227,-0.0236,-0.0255,-0.0265,-0.027,-0.0292,-0.0312,-0.0312,-0.0364,-0.0363,0,0,-0.007,-0.0041,-0.0103,-0.0115,-0.0111,-0.0135,-0.0142,-0.0233,-0.0236,-0.0265,-0.0273,-0.0294,-0.0313,-0.0313,-0.0364,-0.0364,0,0,0,-0.0053,-0.0037,-0.0076,-0.011,-0.0135,-0.0139,-0.0147,-0.0231,-0.0248,-0.0274,-0.0295,-0.0313,-0.0314,-0.0364,-0.0364,-0.0252,0,0,0,-0.005,-0.0028,-0.0073,-0.0056,-0.0134,-0.0187,-0.0143,-0.0241,-0.0253,-0.0295,-0.0313,-0.0316,-0.0364,-0.0364,-0.0256,-0.0172,0,0,0,-0.0025,-0.0025,-0.0041,-0.0055,-0.0107,-0.0187,-0.0208,-0.0244,-0.0266,-0.0312,-0.0316,-0.0364,-0.0364,-0.0259,-0.0179,-0.0072,0,0,0,0.0011,-0.0007,-0.004,-0.0064,-0.0106,-0.0156,-0.0208,-0.0252,-0.0287,-0.0314,-0.0364,-0.0364,-0.026,-0.0183,-0.0077,0.0028,0.0061,0,0,0.0009,-0.0007,-0.0021,-0.0054,-0.0077,-0.0141,-0.0146,-0.0218,-0.0283,-0.0333,-0.0335,-0.0255,-0.0179,-0.0073,0.0059,0.0092,0,0,0,-0.0008,-0.001,-0.0027,-0.0048,-0.0096,-0.0099,-0.0174,-0.0191,-0.0232,-0.0303,-0.0275,-0.0231,-0.0166,-0.0116,-0.0091,-0.0174,-0.0361,-0.0361,-0.0361,0.0049,0.0021,0.0017,-0.0013,-0.0035,-0.0072,-0.0065,-0.0102,-0.0187,-0.0181,-0.0156,-0.0018,0.0033,0.0055,-0.0035,-0.0195,-0.0195,-0.0194,-0.0194,0.0079,0.0082,0.0069,0.0055,0.0051,0.0051,0.0042,0.0014,0.0051,-0.0059,-0.0003,-0.0022,0.009,-0.0016,-0.0187,-0.0188,-0.0189,-0.019,-0.019,0.013,0.0129,0.0118,0.0126,0.016,0.0145,0.0237,0.0205,0.0172,0.0221,0.0268,0.0267,0.0193,0.0239,0.024,0.024,0.0241,0.0242,0.0242,0.0186,0.0175,0.0199,0.0205,0.024,0.0304,0.0358,0.0417,0.0464,0.0429,0.0429,0.0235,0.0115,0.012,0.0255,0.0253,0.0251,0.025,0.0249,0.0231,0.0231,0.0277,0.0309,0.0402,0.0546,0.0573,0.0735,0.077,0.0832,0.0573,0.0542,0.0531,0.0509,0.0522,0.0755,0.0755,0.0755,0.0755,0.0276,0.0272,0.0363,0.0443,0.0557,0.0663,0.0934,0.1041,0.0948,0.086,0.073,0.0617,0.06,0.0584,0.056,0.0569,0.0808,0.0808,0.0807,0.0312,0.0338,0.0424,0.0498,0.0633,0.0826,0.1128,0.1332,0.1084,0.0793,0.0598,0.0596,0.0403,0.0383,0.0324,0.0298,0.03,0,0]}],[{"header":{"parameterUnit":"m.s-1","parameterCategory":2,"la1":30.2992,"la2":30.254,"lo1":-89.0895,"lo2":-89.0443,"dy":0.0025,"dx":0.0025,"nx":19,"ny":19,"refTime":"2026-04-28T21:00:00:Z","depth":"2","parameterNumber":2,"parameterNumberName":"U-component_of_CURRENTS"},"data":[0,0,0,0.1569,0.1573,0.1721,0.1721,0.175,0.175,0,0,0,0,0,0,0,0,0,0,0,0.1516,0.1517,0.1569,0.1573,0.172,0.1721,0.175,0.175,0,0,0,0,0,0,0,0,0,0,0,0.1515,0.1517,0.1519,0.1574,0.172,0.1721,0.175,0.1675,0,0,0,0,0,0,0,0,0,0,0.155,0.1515,0.1516,0.1519,0.1575,0.172,0.1721,0.1673,0.1679,0.1643,0,0.1685,0,0.1724,0.175,0.175,0,0,0,0.1557,0.151,0.1568,0.1519,0.1577,0.172,0.1649,0.1678,0.1685,0.1652,0.1686,0.1689,0.1725,0.175,0.175,0.1791,0.1791,0,0,0.1549,0.1517,0.1563,0.1573,0.1637,0.1645,0.1654,0.1684,0.1685,0.1687,0.1691,0.1725,0.175,0.175,0.179,0.1791,0,0,0,0.1537,0.1511,0.1571,0.157,0.1614,0.165,0.166,0.1684,0.1711,0.1691,0.1726,0.175,0.175,0.179,0.179,0.1875,0,0,0,0.1531,0.1506,0.1568,0.1546,0.1615,0.1669,0.1659,0.1708,0.1714,0.1726,0.175,0.175,0.1789,0.179,0.1872,0.1891,0,0,0,0.1505,0.1502,0.1531,0.1545,0.1619,0.1671,0.1699,0.1711,0.1734,0.175,0.175,0.1789,0.179,0.1869,0.1886,0.1962,0,0,0,0.1449,0.1514,0.153,0.1607,0.1619,0.1712,0.1699,0.1759,0.1779,0.175,0.1789,0.179,0.1868,0.1883,0.1959,0.1927,0.1942,0,0,0.1503,0.152,0.1567,0.1586,0.1673,0.1689,0.1762,0.1785,0.1777,0.1764,0.1766,0.1873,0.1886,0.1961,0.199,0.2002,0,0,0,0.1565,0.1593,0.1625,0.1679,0.174,0.1784,0.181,0.1826,0.1863,0.18,0.1871,0.1876,0.1922,0.1895,0.1905,0.1795,0.1795,0.1795,0.1795,0.1545,0.16,0.1667,0.1734,0.1781,0.1844,0.189,0.191,0.1895,0.1933,0.1945,0.2055,0.2027,0.2035,0.1953,0.1953,0.1954,0.1954,0.1954,0.1603,0.1644,0.169,0.1779,0.1822,0.1874,0.1949,0.1976,0.2057,0.2014,0.2056,0.1984,0.2051,0.1961,0.196,0.1959,0.1958,0.1957,0.1957,0.1584,0.1615,0.1676,0.1764,0.1833,0.1899,0.1987,0.2068,0.2118,0.2177,0.2165,0.2163,0.2112,0.2221,0.2221,0.2222,0.2222,0.2222,0.2223,0.1539,0.1605,0.1652,0.1746,0.1786,0.1879,0.2024,0.2092,0.2206,0.2244,0.2243,0.2145,0.2136,0.2127,0.223,0.2228,0.2227,0.2227,0.2226,0.1531,0.1546,0.161,0.1653,0.1754,0.1809,0.1969,0.2143,0.2244,0.2299,0.2285,0.2281,0.2251,0.2241,0.2233,0.2358,0.2358,0.2358,0.2358,0.1488,0.1511,0.1568,0.1616,0.1682,0.1777,0.1838,0.1875,0.2051,0.2068,0.2079,0.1983,0.1987,0.1934,0.1931,0.1914,0.1955,0.1953,0.1952,0.1463,0.1488,0.1502,0.157,0.1646,0.172,0.17,0.1592,0.1703,0.1924,0.1885,0.2355,0.2243,0.2236,0.2176,0.2163,0.2143,0,0]},{"header":{"parameterUnit":"m.s-1","parameterCategory":2,"la1":30.2992,"la2":30.254,"lo1":-89.0895,"lo2":-89.0443,"dy":0.0025,"dx":0.0025,"nx":19,"ny":19,"refTime":"2026-04-28T21:00:00:Z","depth":"2","parameterNumber":3,"parameterNumberName":"V-component_of_CURRENTS"},"data":[0,0,0,-0.0176,-0.0178,-0.0302,-0.0302,-0.0401,-0.0402,0,0,0,0,0,0,0,0,0,0,0,-0.0127,-0.0128,-0.0175,-0.0179,-0.0302,-0.0302,-0.0401,-0.0402,0,0,0,0,0,0,0,0,0,0,0,-0.0127,-0.0128,-0.0129,-0.0179,-0.0302,-0.0302,-0.0401,-0.0322,0,0,0,0,0,0,0,0,0,0,-0.0209,-0.0163,-0.0128,-0.0129,-0.018,-0.0302,-0.0303,-0.0318,-0.0327,-0.0329,0,-0.0351,0,-0.0382,-0.0407,-0.0408,0,0,0,-0.0176,-0.0156,-0.0202,-0.0129,-0.0181,-0.0302,-0.0245,-0.0323,-0.0333,-0.034,-0.0353,-0.0358,-0.0384,-0.0408,-0.0408,-0.0452,-0.0452,0,0,-0.0169,-0.0137,-0.0196,-0.0208,-0.0216,-0.0242,-0.0249,-0.033,-0.0331,-0.0354,-0.036,-0.0386,-0.0409,-0.0409,-0.0452,-0.0452,0,0,0,-0.0151,-0.0132,-0.0177,-0.0203,-0.0233,-0.0245,-0.0254,-0.0328,-0.0346,-0.0362,-0.0387,-0.0409,-0.041,-0.0452,-0.0452,-0.0375,0,0,0,-0.0147,-0.0123,-0.0174,-0.0154,-0.0231,-0.0288,-0.025,-0.0341,-0.0351,-0.0386,-0.0409,-0.0411,-0.0453,-0.0452,-0.0377,-0.0306,0,0,0,-0.0121,-0.012,-0.0138,-0.0153,-0.021,-0.0288,-0.0311,-0.0344,-0.0366,-0.0408,-0.0411,-0.0453,-0.0452,-0.038,-0.0311,-0.0242,0,0,0,-0.0079,-0.0102,-0.0137,-0.0167,-0.0209,-0.0278,-0.0311,-0.0361,-0.0395,-0.0409,-0.0452,-0.0452,-0.038,-0.0315,-0.0246,-0.0157,-0.0133,0,0,-0.0084,-0.0102,-0.012,-0.0155,-0.0199,-0.0261,-0.0286,-0.0342,-0.0388,-0.0422,-0.0424,-0.0377,-0.0312,-0.0243,-0.0138,-0.0114,0,0,0,-0.0107,-0.0119,-0.014,-0.0174,-0.0231,-0.0243,-0.0318,-0.0336,-0.0366,-0.0409,-0.0392,-0.0352,-0.0312,-0.0267,-0.0248,-0.0451,-0.0451,-0.0451,-0.0451,-0.0058,-0.0096,-0.0111,-0.0157,-0.0189,-0.0237,-0.0239,-0.0274,-0.0343,-0.0339,-0.0302,-0.021,-0.0164,-0.0148,-0.0338,-0.0338,-0.0337,-0.0337,-0.0337,-0.0038,-0.004,-0.0069,-0.0095,-0.011,-0.0127,-0.0156,-0.0182,-0.0165,-0.0244,-0.021,-0.0204,-0.0122,-0.0331,-0.0332,-0.0333,-0.0334,-0.0334,-0.0335,0.0011,0.0008,-0.0008,-0.0018,-0.0001,-0.0033,0.0038,-0.0007,-0.0065,-0.0032,0.0005,0.0004,-0.0128,-0.0027,-0.0026,-0.0026,-0.0025,-0.0025,-0.0024,0.0078,0.0059,0.0074,0.0061,0.0086,0.0133,0.0156,0.0185,0.018,0.0128,0.0128,-0.0104,-0.0115,-0.011,-0.0015,-0.0017,-0.0018,-0.0019,-0.0019,0.0119,0.0116,0.0148,0.0171,0.0242,0.0375,0.0374,0.0468,0.0454,0.0474,0.0218,0.0209,0.0204,0.0188,0.0199,0.0369,0.0369,0.0369,0.0369,0.0165,0.0156,0.0229,0.0296,0.0398,0.0493,0.0715,0.0714,0.0594,0.0475,0.047,0.0399,0.0382,0.0381,0.036,0.0371,0.0587,0.0587,0.0587,0.0197,0.0216,0.029,0.0352,0.0474,0.0661,0.0909,0.0923,0.0675,0.059,0.0448,0.0395,0.0272,0.0253,0.023,0.0205,0.0215,0,0]}],[{"header":{"parameterUnit":"m.s-1","parameterCategory":2,"la1":30.2992,"la2":30.254,"lo1":-89.0895,"lo2":-89.0443,"dy":0.0025,"dx":0.0025,"nx":19,"ny":19,"refTime":"2026-04-28T21:00:00:Z","depth":"4","parameterNumber":2,"parameterNumberName":"U-component_of_CURRENTS"},"data":[0,0,0,0.0429,0.0428,0.0423,0.0424,0.0405,0.0404,0,0,0,0,0,0,0,0,0,0,0,0.0435,0.0434,0.0429,0.0428,0.0423,0.0424,0.0405,0.0404,0,0,0,0,0,0,0,0,0,0,0,0.0435,0.0434,0.0433,0.0427,0.0423,0.0424,0.0405,0.042,0,0,0,0,0,0,0,0,0,0,0.043,0.0472,0.0435,0.0433,0.0427,0.0423,0.0424,0.0421,0.0419,0.0393,0,0.0369,0,0.0367,0.04,0.04,0,0,0,0.0462,0.0475,0.0416,0.0433,0.0426,0.0423,0.0435,0.0421,0.0418,0.0389,0.0369,0.0368,0.0366,0.0399,0.0399,0.0407,0.0408,0,0,0.0462,0.0495,0.0418,0.0414,0.0394,0.0435,0.0434,0.042,0.0437,0.0369,0.0368,0.0366,0.0399,0.0398,0.0407,0.0407,0,0,0,0.044,0.0495,0.044,0.0415,0.0403,0.0434,0.0433,0.0439,0.0403,0.0367,0.0366,0.0398,0.0398,0.0406,0.0407,0.0444,0,0,0,0.0442,0.0478,0.044,0.0468,0.0403,0.0434,0.0453,0.0405,0.0403,0.0366,0.0398,0.0397,0.0405,0.0406,0.0441,0.0474,0,0,0,0.0441,0.0481,0.0457,0.0468,0.0443,0.0433,0.0402,0.0405,0.04,0.0399,0.0397,0.0405,0.0406,0.0439,0.047,0.0544,0,0,0,0.0507,0.0445,0.0458,0.0427,0.0442,0.0397,0.0403,0.0408,0.041,0.0398,0.0405,0.0407,0.0438,0.0468,0.0541,0.0406,0,0,0,0.045,0.0441,0.0423,0.0432,0.0378,0.0402,0.0409,0.0421,0.0427,0.0413,0.0413,0.0442,0.047,0.0543,0.0493,0,0,0,0,0.0421,0.0409,0.0398,0.0388,0.0356,0.0387,0.0392,0.0418,0.0464,0.0426,0.0462,0.0479,0.0524,0.0436,0.0414,0.0414,0.0413,0.0413,0.0413,0.0445,0.0417,0.0386,0.0354,0.0352,0.0383,0.0423,0.0466,0.0454,0.0505,0.0523,0.0624,0.0532,0.0529,0.0529,0.0529,0.053,0.053,0.053,0.0397,0.0363,0.039,0.0347,0.0371,0.0405,0.0464,0.0503,0.0597,0.0575,0.0616,0.0496,0.0534,0.0533,0.0533,0.0532,0.0532,0.0531,0.0531,0.0395,0.0351,0.0375,0.0357,0.0416,0.0462,0.0557,0.0618,0.0656,0.07,0.0654,0.0674,0.0658,0.075,0.075,0.0751,0.0751,0.0752,0.0752,0.0356,0.0354,0.0356,0.0374,0.0406,0.0498,0.0645,0.0695,0.0751,0.0709,0.0751,0.0699,0.0692,0.0673,0.0759,0.0758,0.0757,0.0756,0.0756,0.0266,0.0322,0.0303,0.0327,0.0397,0.0458,0.0619,0.0717,0.0781,0.0763,0.0707,0.0707,0.0693,0.0687,0.0666,0.0754,0.0753,0.0751,0,0.0236,0.0248,0.0261,0.0281,0.0316,0.0418,0.0497,0.0595,0.065,0.0615,0.0734,0.0665,0.0665,0.0641,0.0634,0.0605,0,0,0,0.02,0.0211,0.0204,0.0237,0.0267,0.0373,0.0518,0.0539,0.0638,0.0667,0.0717,0.0726,0.0717,0.0781,0.0762,0.0753,0.0722,0,0]},{"header":{"parameterUnit":"m.s-1","parameterCategory":2,"la1":30.2992,"la2":30.254,"lo1":-89.0895,"lo2":-89.0443,"dy":0.0025,"dx":0.0025,"nx":19,"ny":19,"refTime":"2026-04-28T21:00:00:Z","depth":"4","parameterNumber":3,"parameterNumberName":"V-component_of_CURRENTS"},"data":[0,0,0,0.0336,0.034,0.0514,0.0514,0.0606,0.0606,0,0,0,0,0,0,0,0,0,0,0,0.0275,0.0276,0.0335,0.034,0.0514,0.0514,0.0606,0.0606,0,0,0,0,0,0,0,0,0,0,0,0.0274,0.0276,0.0278,0.0341,0.0514,0.0514,0.0605,0.0503,0,0,0,0,0,0,0,0,0,0,0.0349,0.0298,0.0276,0.0278,0.0342,0.0513,0.0514,0.05,0.051,0.0494,0,0.0541,0,0.0581,0.0611,0.0611,0,0,0,0.0326,0.029,0.036,0.0278,0.0344,0.0513,0.0431,0.0506,0.0517,0.0506,0.0542,0.0547,0.0582,0.0611,0.0611,0.0653,0.0653,0,0,0.0316,0.0278,0.0353,0.0368,0.0413,0.0426,0.0437,0.0514,0.0518,0.0543,0.055,0.0584,0.0612,0.0612,0.0653,0.0653,0,0,0,0.0298,0.0271,0.0341,0.0363,0.0408,0.0431,0.0444,0.0515,0.0546,0.0551,0.0585,0.0612,0.0613,0.0653,0.0653,0.0568,0,0,0,0.0292,0.0263,0.0337,0.0311,0.0408,0.0477,0.0442,0.0541,0.0551,0.0584,0.0612,0.0613,0.0653,0.0653,0.057,0.0569,0,0,0,0.0263,0.0258,0.0292,0.031,0.0395,0.0478,0.0513,0.0544,0.0571,0.0611,0.0614,0.0653,0.0653,0.0572,0.0572,0.0522,0,0,0,0.0198,0.0275,0.0291,0.0376,0.0394,0.0492,0.0513,0.0574,0.0609,0.0612,0.0653,0.0653,0.0573,0.0574,0.0524,0.0574,0,0,0,0.0263,0.0281,0.0332,0.0352,0.0435,0.0465,0.0531,0.0585,0.0596,0.0616,0.0618,0.0569,0.0572,0.0522,0.0568,0,0,0,0,0.0331,0.0374,0.0399,0.0454,0.0505,0.0533,0.0589,0.0577,0.0572,0.0622,0.0591,0.0598,0.0567,0.0605,0.0652,0.0652,0.0652,0.0652,0.0652,0.0339,0.0386,0.0448,0.0509,0.055,0.0582,0.0577,0.0573,0.0579,0.0543,0.0542,0.0473,0.051,0.0541,0.054,0.054,0.054,0.0539,0.0539,0.0416,0.0454,0.0482,0.0572,0.0573,0.0626,0.0581,0.0552,0.0469,0.0486,0.0459,0.0532,0.0531,0.0533,0.0534,0.0535,0.0536,0.0536,0.0537,0.0406,0.0432,0.0499,0.0585,0.0634,0.0656,0.0642,0.0549,0.0432,0.0375,0.0413,0.0427,0.0417,0.0345,0.0345,0.0345,0.0344,0.0344,0.0344,0.0364,0.0433,0.0503,0.0609,0.0652,0.0691,0.0652,0.0589,0.0458,0.0357,0.0356,0.0408,0.0414,0.0408,0.034,0.0341,0.0341,0.0342,0.0342,0.0388,0.0421,0.0512,0.0568,0.0677,0.0699,0.0704,0.059,0.0487,0.0379,0.0338,0.034,0.038,0.0388,0.0382,0.0304,0.0304,0.0304,0,0.0373,0.0405,0.0511,0.0582,0.0632,0.069,0.0631,0.0591,0.0418,0.0369,0.0425,0.038,0.038,0.0433,0.0439,0.0436,0,0,0,0.0382,0.041,0.0466,0.0559,0.0609,0.0592,0.0613,0.0553,0.0458,0.0434,0.0314,0.0311,0.048,0.0329,0.0396,0.0403,0.0397,0,0]}]]